{"data":{"norad_id":53225,"intl_designator":"2022-084AN","name":"STARLINK-4358","alt_names":[],"object_type":"PAYLOAD","status":"ACTIVE","operator":null,"country":"US","launch_date":"2022-07-22","launch_site_code":"AFWTR","launch_vehicle":null,"mission":null,"orbit_class":"UNKNOWN","rcs_meters":null,"size_class":null,"mass_kg":null,"dimensions":null,"purposes":["comms"],"wikipedia_slug":null,"has_3d_model":false,"image_url":null,"decayed_at":null,"tle_current":{"epoch":"2026-09-19T10:34:19.894656Z","epoch_age_seconds":163836,"freshness":"FRESH","line1":"1 53225U 22084AN  26262.44050804  .00000617  00000+0  21441-4 0  9995","line2":"2 53225  97.2847 318.2023 0001520  90.0737 270.0680 15.33438899228591","mean_motion":15.33438899,"eccentricity":0.000152,"inclination_deg":97.2847,"raan_deg":318.2023,"arg_perigee_deg":90.0737,"mean_anomaly_deg":270.068,"bstar":2.1441e-5,"rev_number":22859,"period_min":93.906578275735,"perigee_km":464.52108467622,"apogee_km":466.60156896757,"semimajor_km":6843.6983268219,"source":"CELESTRAK","updated_at":"2026-09-20T09:00:40.195291Z"}}}